FW8773 Weather Reports


time (UTC)temp
C
wind
direction
speed
KPH
gust
KPH
rain 1hr
cm
rain 24hr
cm
rain mn
cm
humidity
%
barometer
mb
20260906203012 32 180 33.8 49.9 0.00 0.05 0.05 50 1008.2
20260906201508 31 165 32.2 48.3 0.00 0.05 0.05 50 1008.3
20260906200007 31 153 33.8 45.1 0.00 0.05 0.05 51 1008.5
20260906194513 31 157 41.8 53.1 0.00 0.05 0.05 50 1008.7
20260906193005 31 178 33.8 45.1 0.00 0.05 0.05 49 1008.8
20260906191507 31 166 37.0 56.3 0.00 0.05 0.05 48 1008.8
20260906190004 31 184 35.4 49.9 0.00 0.05 0.05 49 1008.9
20260906184608 30 176 30.6 53.1 0.00 0.05 0.05 54 1009.1
20260906183102 30 167 35.4 49.9 0.00 0.05 0.05 55 1009.0
20260906181559 29 183 32.2 45.1 0.00 0.05 0.05 56 1009.4
20260906180053 28 153 29.0 48.3 0.00 0.05 0.05 60 1009.7
20260906174550 28 148 30.6 43.5 0.00 0.05 0.05 63 1010.0
20260906173051 27 182 25.7 35.4 0.00 0.05 0.05 65 1010.2
20260906171540 26 150 25.7 35.4 0.00 0.05 0.05 67 1010.4
20260906170041 26 165 30.6 40.2 0.00 0.05 0.05 69 1010.7
20260906164533 25 154 22.5 35.4 0.00 0.05 0.05 73 1011.1
20260906163031 23 124 16.1 33.8 0.00 0.05 0.05 78 1011.2
20260906161532 24 111 17.7 30.6 0.00 0.05 0.05 78 1011.1
20260906160036 23 119 14.5 38.6 0.00 0.05 0.05 83 1011.1
20260906154538 22 128 16.1 30.6 0.00 0.05 0.05 84 1011.2
20260906153026 22 133 19.3 32.2 0.00 0.05 0.05 85 1011.2
20260906151523 22 100 12.9 24.1 0.00 0.05 0.05 88 1011.1
20260906150022 21 137 14.5 29.0 0.00 0.05 0.05 91 1011.1
20260906144518 21 152 14.5 29.0 0.00 0.05 0.05 93 1011.2
20260906143016 20 134 20.9 29.0 0.00 0.05 0.05 93 1010.9
20260906141513 20 132 24.1 38.6 0.00 0.05 0.05 93 1010.9
20260906140010 20 106 19.3 32.2 0.00 0.05 0.05 93 1011.1
20260906134507 20 128 12.9 29.0 0.00 0.05 0.05 93 1011.1
20260906133004 20 120 17.7 27.4 0.03 0.05 0.05 93 1010.8
20260906131605 20 157 9.7 16.1 0.03 0.05 0.05 93 1010.9
20260906130058 20 132 3.2 11.3 0.03 0.05 0.05 93 1010.4
20260906124559 20 96 8.0 16.1 0.03 0.05 0.05 93 1010.0
20260906123101 20 80 11.3 25.7 0.00 0.03 0.03 93 1009.9
20260906121555 20 103 3.2 11.3 0.00 0.03 0.03 93 1010.7
20260906120053 19 109 0.0 11.3 0.00 0.03 0.03 93 1010.8
20260906114553 19 101 4.8 12.9 0.00 0.03 0.03 93 1010.5
20260906113051 20 102 9.7 16.1 0.00 0.03 0.03 92 1010.6
20260906111550 20 85 6.4 12.9 0.00 0.03 0.03 92 1010.5
20260906110051 20 64 6.4 14.5 0.03 0.03 0.03 92 1010.5
20260906104545 20 42 8.0 12.9 0.03 0.03 0.03 91 1010.3
20260906103044 20 25 6.4 14.5 0.03 0.03 0.03 89 1010.0
20260906101542 20 17 9.7 20.9 0.03 0.03 0.03 87 1010.2
20260906100037 21 19 9.7 25.7 0.00 0.00 0.00 84 1009.6
20260906094535 22 45 12.9 32.2 0.00 0.00 0.00 77 1009.6
20260906093028 23 326 17.7 22.5 0.00 0.00 0.00 71 1009.1
20260906091530 24 247 6.4 16.1 0.00 0.00 0.00 68 1008.6
20260906090138 24 239 3.2 17.7 0.00 0.00 0.00 69 1008.4
20260906084527 24 204 17.7 20.9 0.00 0.00 0.00 66 1008.2
20260906083025 24 199 14.5 20.9 0.00 0.00 0.00 67 1008.2
20260906081533 24 194 16.1 22.5 0.00 0.00 0.00 66 1008.2
20260906080023 25 199 19.3 32.2 0.00 0.00 0.00 65 1008.2
20260906074521 25 360 20.9 27.4 0.00 0.00 0.00 64 1008.4
20260906073020 25 182 12.9 22.5 0.00 0.00 0.00 64 1008.5
20260906071520 25 182 19.3 29.0 0.00 0.00 0.00 63 1008.5
20260906070018 25 180 17.7 25.7 0.00 0.00 0.00 64 1008.5
20260906064516 25 174 19.3 25.7 0.00 0.00 0.00 65 1008.8
20260906063014 25 169 16.1 24.1 0.00 0.00 0.00 66 1008.9
20260906061514 24 360 12.9 19.3 0.00 0.00 0.00 67 1009.1
20260906060012 24 163 12.9 19.3 0.00 0.00 0.00 67 1008.8
20260906054510 24 175 11.3 14.5 0.00 0.00 0.00 68 1008.8
20260906053009 24 180 9.7 12.9 0.00 0.00 0.00 67 1008.7
20260906051508 24 162 11.3 19.3 0.00 0.00 0.00 67 1008.4
20260906050006 25 161 12.9 17.7 0.00 0.00 0.00 65 1008.3
20260906044502 25 161 8.0 16.1 0.00 0.00 0.00 63 1008.5
20260906043002 25 162 9.7 17.7 0.00 0.00 0.00 63 1008.6
20260906041501 25 169 12.9 19.3 0.00 0.00 0.00 62 1008.3
20260906040100 25 170 12.9 20.9 0.00 0.00 0.00 62 1008.4
20260906034600 25 166 16.1 20.9 0.00 0.00 0.00 62 1008.3
20260906033100 26 162 14.5 19.3 0.00 0.00 0.00 61 1008.2
20260906031559 26 160 14.5 24.1 0.00 0.00 0.00 60 1008.3
20260906030127 26 157 14.5 19.3 0.00 0.00 0.00 60 1008.1
20260906024602 26 160 14.5 24.1 0.00 0.00 0.00 59 1008.0
20260906023112 27 161 17.7 24.1 0.00 0.00 0.00 59 1007.8
20260906021610 27 168 19.3 25.7 0.00 0.00 0.00 58 1007.9
20260906020100 28 148 14.5 22.5 0.00 0.00 0.00 56 1007.6
20260906014559 28 153 14.5 27.4 0.00 0.00 0.00 55 1007.5
20260906014532 28 155 14.5 27.4 0.00 0.00 0.00 55 1007.5
20260906013055 28 160 16.1 25.7 0.00 0.00 0.00 54 1007.6
20260906011555 29 148 9.7 27.4 0.00 0.00 0.00 52 1007.2
20260906010053 30 160 24.1 35.4 0.00 0.00 0.00 50 1006.9
20260906004555 31 142 25.7 37.0 0.00 0.00 0.00 48 1006.5
20260906003103 31 151 27.4 46.7 0.00 0.00 0.00 46 1006.6
20260906001551 33 170 17.7 29.0 0.00 0.00 0.00 37 1006.2
20260906000051 34 179 25.7 30.6 0.00 0.00 0.00 36 1006.2
20260905234556 35 190 19.3 38.6 0.00 0.00 0.00 36 1006.2
20260905233050 35 196 20.9 38.6 0.00 0.00 0.00 35 1006.1
20260905231548 35 175 25.7 32.2 0.00 0.00 0.00 36 1006.0
20260905230052 35 159 25.7 40.2 0.00 0.00 0.00 37 1005.8
20260905224547 35 182 24.1 35.4 0.00 0.00 0.00 37 1005.8
20260905223047 35 152 20.9 30.6 0.00 0.00 0.00 37 1005.8
20260905221544 35 126 20.9 33.8 0.00 0.00 0.00 36 1005.8
20260905220040 35 360 24.1 35.4 0.00 0.00 0.00 37 1006.1
20260905214534 35 132 20.9 37.0 0.00 0.00 0.00 35 1006.2
20260905213030 35 165 29.0 41.8 0.00 0.00 0.00 35 1006.4
20260905211526 35 169 24.1 37.0 0.00 0.00 0.00 33 1006.6
20260905210026 35 153 30.6 40.2 0.00 0.00 0.00 35 1006.7
20260905204520 35 171 25.7 46.7 0.00 0.00 0.00 33 1007.0